Regional Weather Roundup
Issued by NWS Portland, ME

Current Version | Previous Version | Text Only | Print | Product List | Glossary On
Versions: 1 2 3 4 5 6 7 8 9 10 11 12 13 14 15 16 17 18 19 20 21 22 23 24 25 26 27 28 29 30 31 32 33 34 35 36 37 38 39 40 41 42 43 44 45 46 47 48 49 50
000
ASUS41 KGYX 271410
RWRGYX
WEATHER ROUNDUP FOR MAINE AND NEW HAMPSHIRE
NATIONAL WEATHER SERVICE GRAY ME
1000 AM EDT MON JUN 27 2016

MEZ002-005-006-010-012-015-018-020-021-024-026-027-029-271500-
MAINE

CITY           SKY/WX    TMP DP  RH WIND       PRES   REMARKS
PORTLAND       MOSUNNY   77  61  57 S7        30.03F
SANFORD        SUNNY     79  57  47 SW7       30.05S
BAR HARBOR     SUNNY     67  58  72 S18       30.06S
WISCASSET      SUNNY     73  57  57 S6        30.05F
ROCKLAND       SUNNY     68  59  73 S10       30.05F
FRYEBURG       SUNNY     80  64  58 VRB6      30.01F
LEWISTONAUBURN SUNNY     80  64  58 S7        30.02F
AUGUSTA        SUNNY     74  61  63 S7        30.02F
WATERVILLE     SUNNY     73  63  70 VRB5      29.99F
BANGOR         MOSUNNY   78  62  57 S8        30.02F
GREENVILLE       N/A     72  55  55 S6        29.99F
MILLINOCKET    SUNNY     75  59  57 VRB3      29.99F
HOULTON        SUNNY     77  60  55 SW10      29.96F
PRESQUE ISLE   SUNNY     77  62  59 SE7       29.95F
FRENCHVILLE    MOSUNNY   74  57  55 S12       29.92F
CARIBOU        MOSUNNY   75  60  59 S7        29.93F
$$

NHZ002-005-008-009-011-012-014-271500-
NEW HAMPSHIRE

CITY           SKY/WX    TMP DP  RH WIND       PRES   REMARKS
PORTSMOUTH     MOSUNNY   79  57  47 SW10      30.03F
ROCHESTER      SUNNY     79  59  50 VRB5      30.04F
NASHUA         SUNNY     80  55  42 VRB6      30.06F
MANCHESTER     MOSUNNY   80  53  39 S13G21    30.03F
CONCORD        SUNNY     80  56  43 S8        30.04F
LACONIA        MOSUNNY   77  62  59 W8        30.03F
PLYMOUTH       FAIR      76  63  62 E3        30.01F
BERLIN         MOSUNNY   82  57  42 S6        29.99F
WHITEFIELD     MOSUNNY   81  58  45 VRB6      30.00F
JAFFREY        SUNNY     76  46  34 S9G21     30.08F
KEENE          SUNNY     77  55  47 S10       30.06F
LEBANON        SUNNY     77  60  55 S13       30.00F
MT WASHINGTON  PTSUNNY   54  48  82 SW35G53     N/A
$$

VTZ005-007-008-271500-
VERMONT

CITY           SKY/WX    TMP DP  RH WIND       PRES   REMARKS
ST JOHNSBURY     N/A     76  59  55 MISG      29.96F
MONTPELIER     FAIR      77  60  55 S15G22    30.02F
BURLINGTON     PTSUNNY   76  57  51 S15G30    29.92F
$$

MAZ007-012-024-CTZ003-RIZ002-NYZ038-NYZ072-271500-
SOUTHERN NEW ENGLAND AND NY

CITY           SKY/WX    TMP DP  RH WIND       PRES   REMARKS
BOSTON         MOSUNNY   80  55  42 SW16      30.07F
WORCESTER      SUNNY     74  53  48 SW13      30.10F
NANTUCKET      SUNNY     67  58  72 S13       30.15F
PROVIDENCE     PTSUNNY   77  59  53 S10       30.11F
HARTFORD       PTSUNNY   78  55  44 S10       30.06F
ALBANY         PTSUNNY   76  55  48 S14G20    30.01F
NEW YORK CITY  PTSUNNY   77  61  57 SW8       30.09F
$$

ANZ081-ANZ082-ANZ150-NHZ014-MEZ023>029-271500-
COASTAL MARINE OBSERVATIONS

STATION/POSITION TIME  TEMP    WIND        PRES    WAVE
                       AIR SEA DIR/SP/G            HT/PER
                 (UTC) (F)     (DEG/KT/KT) (MB)    (FT/S)
MOUNT DESERT ROC 1400   58     190/ 17/ 17 1018.6S
MATINICUS ROCK   1300   60     200/ 18/ 19 1018.2R
ISLE OF SHOALS   1300   65     220/ 13/ 13 1017.8F
JEFFREYS LEDGE   1308      61                N/A     4/ 5
CASHES LEDGE BUO 1350   63 60  200/ 17/ 19 1018.5F   4/ 5
GEORGES BANK BUO 1350   61 58              1022.7F   3/ 7
$$

.............KEY..............
   WCI - WIND CHILL
   TC  - TEMPERATURE IN CELSIUS
   VSB - VISIBILITY IN MILES
   HX  - HEAT INDEX
   FAIR- INDICATES FEW OR NO CLOUDS BELOW 12,000 FT, WITH NO
         SIGNIFICANT WEATHER AND/OR OBSTRUCTIONS TO VISIBILITY.






USA.gov is the U.S. government's official web portal to all federal, state and local government web resources and services.